986  
ASUS46 KPDT 261710  
RWRPDT  
PENDLETON REGIONAL WEATHER ROUNDUP  
NATIONAL WEATHER SERVICE PENDLETON OREGON  
1000 AM PDT SAT JUL 26 2014  
 
NOTE: FAIR INDICATES FEW OR NO CLOUDS BELOW 12,000 FEET WITH NO  
SIGNIFICANT WEATHER AND/OR S TO VISIBILITY
.  
 
# INDICATES UNOFFICIAL STATION AND DATA  
 
WAZ520-261810-  
EAST SLOPES OF WASHINGTON CASCADES  
 
CITY SKY/WX TMP DP RH WIND PRES REMARKS
 
#BUMPING DAM N/A 55 N/A N/A SE1 N/A  
#CLE ELUM HS N/A 67 50 54 CALM 30.09S  
#CLE ELUM LAKE N/A 66 48 52 CALM 30.05S  
#CLIFFDEL 2NW N/A 59 49 69 CALM N/A  
#EASTON DOT N/A 64 48 56 CALM N/A  
#ELK HTS DOT N/A 65 65 100 N2 N/A  
#GLENWOOD N/A 63 56 78 CALM 30.08F  
#MANASTASH CYN N/A 65 48 54 NW2 30.12R  
#NELSON N/A 66 52 61 CALM 30.08F  
#NELSON 3SW N/A 62 52 70 CALM 30.27F  
#PEOH POINT N/A 62 39 43 SW1 N/A  
#RONALD 2NW N/A 61 50 67 W1 30.03S  
#TROUT LAKE 1NE N/A 65 53 65 CALM 30.07F  

 
 
WAZ521-261810-  
SIMCOE HIGHLANDS  
 
CITY SKY/WX TMP DP RH WIND PRES REMARKS
 
#BICKLETON HS N/A 72 32 23 SW3 30.18S  
#SATUS PASS DOT N/A 71 38 30 CALM N/A  
#CENTERVILLE 1SWN/A 70 50 49 NW2 30.03F  
#GOLDENDALE 1NE N/A 67 47 49 CALM N/A  
#GOLDENDALE 1S N/A 68 55 63 CALM 30.09S  
#GOLDENDALE 5WNWN/A 68 52 57 W5 30.05S  
#GOODNOE HILLS N/A 72 54 53 W12 30.04S  
#LYLE 6NE N/A 62 54 75 S2 30.04F  

 
 
WAZ026-261810-  
KITTITAS VALLEY  
 
CITY SKY/WX TMP DP RH WIND PRES REMARKS
 
ELLENSBURG AP SUNNY 72 50 46 CALM 30.14R  
#ELLENSBURG CWU N/A 68 54 61 CALM 30.03S  
#ELLENSBURG 3NE N/A 66 55 68 CALM 30.14R  
#ELLENSBURG 1E N/A 67 53 61 CALM N/A  
#RYEGRASS DOT N/A 68 48 49 W2 N/A  
#THORP 6N N/A 66 48 52 N6 30.08S  

 
 
WAZ027-261810-  
YAKIMA VALLEY  
 
CITY SKY/WX TMP DP RH WIND PRES REMARKS
 
YAKIMA AIRPORT SUNNY 74 51 44 N5 30.11F  
YAKIMA-VAGABOND SUNNY 73 46 38 N5 30.12F  
#COWICHE 1N N/A 66 52 61 N1 30.25S  
#DONALD 2NE N/A 67 43 42 SW1 30.30S  
#GRANDVIEW N/A 72 51 48 E1 30.09S  
#MABTON N/A 71 54 55 CALM 30.09F  
#MOXEE 2E N/A 76 35 22 CALM 29.98F  
#NACHES 2SW N/A 70 54 57 NE1 30.14S  
#TERRACE HTS N/A 73 49 43 CALM 30.02F  
#TOPPENISH N/A 71 53 53 CALM 29.99S  
#WAPATO 4NE N/A 67 43 42 SW1 30.30S  
#W YAKIMA N/A 72 51 48 E2 30.06S  
#WHITE SWAN 5E N/A 72 55 55 NE1 30.08S  
#WILEY CITY 3W N/A 70 51 51 CALM 30.12R  

 
 
WAZ028-261810-  
LOWER COLUMBIA BASIN...WASHINGTON  
 
CITY SKY/WX TMP DP RH WIND PRES REMARKS
 
HANFORD SUNNY 75 47 37 NW5 30.09R  
PASCO SUNNY 74 52 46 N6 30.10S  
PROSSER AWOS N/A 73 52 48 SW2 30.12F  
RICHLAND AWOS SUNNY 75 48 38 CALM 30.09F  
#BASIN CITY 5SW N/A 73 56 55 NE1 30.10S  
#BENTON CITY N/A 73 51 46 NW3 29.98S  
#CONNELL 5N N/A 75 47 37 SW1 30.07F  
#CONNELL 5NW N/A 72 43 35 CALM 30.04S  
#ELTOPIA N/A 74 52 46 S2 30.04S  
#ELTOPIA 6NW N/A 70 53 55 SE1 29.08R  
#KENNEWICK 3S N/A 68 60 76 CALM 30.07S  
#PASCO-BROADMOORN/A 76 52 43 NW2 29.98R  
#PATERSON N/A 69 55 61 S1 30.06F  
#PROSSER DOT N/A 72 50 46 W2 N/A  
#PROSSER N/A 72 49 44 NW1 30.07S  
#SAGEMOOR 2W N/A 70 54 57 CALM 29.93S  
#TOUCHET 2S N/A 73 54 51 CALM 30.06F  
#WEST PASCO N/A 74 54 50 N1 30.10S  

 
 
WAZ029-261810-  
FOOTHILLS OF THE BLUES...WASHINGTON  
 
CITY SKY/WX TMP DP RH WIND PRES REMARKS
 
WALLA WALLA AP SUNNY 75 47 37 VRB3 30.12S  
#COLLEGE PLACE N/A 79 47 32 W2 30.09F  
#DAYTON SCHOOL N/A 75 41 29 SW1 30.10F  
#LOWDEN 2SE N/A 74 53 48 CALM 30.06S  
#PLEASANT VIEW 1N/A 75 45 34 SW1 30.10S  
#PRESCOTT N/A 77 49 37 CALM 30.07S  
#SUDBURY N/A 77 N/A N/A CALM N/A  
#WHITMAN COLLEGEN/A 72 51 48 CALM 30.12S  
#WAITSBURG 8N N/A 80 35 20 S6 29.97S  
#WALLA WALLA 5E N/A 74 50 43 S15 N/A  
#WHITMAN MISSIONN/A 73 51 46 NW1 30.08F  

 
 
WAZ030-261810-  
BLUE MOUNTAINS...WASHINGTON  
 
CITY SKY/WX TMP DP RH WIND PRES REMARKS
 

 
 
ORZ009-041-WAZ024-261810-  
COLUMBIA RIVER GORGE  
 
CITY SKY/WX TMP DP RH WIND PRES REMARKS
 
HOOD RIVER AP SUNNY 66 54 65 CALM 30.12F  
THE DALLES AP SUNNY 73 53 49 NW8 30.09F  
#ARLINGTON AIRPON/A 70 54 57 W12 N/A  
#ARLINGTON HS N/A 75 53 46 CALM 29.98S  
#CELILO DOT N/A 75 53 46 NW1 N/A  
#MARYHILL N/A 68 53 59 CALM N/A  
#MOSIER 1S N/A 67 49 52 NW2 30.18S  
#MURDOCK N/A 70 58 66 NW9 30.10F  
#RUFUS DOT N/A N/A N/A N/A SW5 N/A  
 

 
 
ORZ510-261810-  
NORTH CENTRAL OREGON  
 
CITY SKY/WX TMP DP RH WIND PRES REMARKS
 
#CHENOWITH 1W N/A 64 49 58 NW18 N/A  
#COW CYN RST AREN/A 69 42 37 SW3 N/A  
#DUFUR 9E N/A 67 39 36 W6 30.11R  
#GRASS VALLEY 1SN/A 71 43 36 CALM 30.08S  
#KENT DOT N/A 71 36 28 N5 N/A  
#MAUPIN SCHOOL N/A 70 47 44 CALM 30.14F  
#MORO SCHOOL N/A 70 47 44 NW12 30.13S  
#SHANIKO 5WSW N/A 69 33 26 NE5 N/A  
#SHANIKO 4NW N/A 69 34 27 NE3 30.19R  
#TYGH VALLEY 2NEN/A 67 49 52 CALM 30.08S  
#WAPANITIA AIRPON/A 70 45 41 CALM 30.08S  
#WASCO DOT N/A 73 48 41 W7 N/A  
#WASCO 5NE N/A 71 51 49 CALM 30.06S  

 
 
ORZ511-261810-  
CENTRAL OREGON  
 
CITY SKY/WX TMP DP RH WIND PRES REMARKS
 
BEND AIRPORT SUNNY 68 45 44 CALM 30.19S  
MADRAS AIRPORT SUNNY 68 46 45 CALM 30.17S  
REDMOND AIRPORT SUNNY 69 42 37 CALM 30.16F  
#BEND 6E N/A 69 43 39 CALM 29.96F  
#BEND 1SW N/A 67 45 45 N1 N/A  
#BEND-AWBREY N/A 68 46 45 SW1 30.03S  
#BEND-KIM LN N/A 67 50 54 CALM 30.16S  
#CROOKED RVR RANN/A 70 49 47 E1 30.04F  
#CULVER N/A 68 50 53 W3 30.13S  
#LAKE BILLY CHINN/A 68 18 15 N3 30.17F  
#PRINEVILLE 3N N/A 67 51 56 CALM 30.01F  
 
 
ORZ509-261810-  
EAST SLOPES OF OREGON CASCADES  
 
CITY SKY/WX TMP DP RH WIND PRES REMARKS
 
#BLUE BOX PASS N/A 59 6 12 CALM N/A  
#BLACK BUTTE RNCN/A 60 51 72 CALM 30.07S  
#CAMP SHERMAN N/A 67 51 56 CALM 30.07F  
#LA PINE DOT N/A 69 40 35 CALM N/A  
#LA PINE 4NW N/A 63 47 56 CALM 30.09F  
#LAVA BUTTE DOT N/A 67 43 42 CALM N/A  
#SISTERS AIRPOR N/A 69 54 59 CALM 30.16S  
#SISTERS ODOT N/A 69 N/A N/A NE1 N/A  
#SISTERS 3N N/A 68 32 26 E3 30.19S  
#SUNRIVER N/A 66 49 54 S1 29.93F  
#SUNRIVER AP N/A 62 50 65 CALM 30.02F  
#SUTTLE LK DOT N/A 65 48 54 W6 N/A  
#TUMALO 3W N/A 67 44 43 N2 29.93S  
#WANOGA BUTTE D N/A 64 38 38 W6 N/A  
 

 
 
ORZ044-261810-  
LOWER COLUMBIA BASIN...OREGON  
 
CITY SKY/WX TMP DP RH WIND PRES REMARKS
 
HERMISTON SUNNY 74 49 41 N3 30.10S  
#BOARDMAN SCHOOLN/A 69 53 57 CALM 30.07F  
#BOARDMAN 3W N/A 74 54 50 NE2 29.79S  
#BOARDMAN 8SW N/A 72 56 57 W2 30.07S  
#IONE SCHOOL N/A 73 48 41 W3 30.09S  
#IRRIGON 4NW N/A 71 53 53 N2 N/A  
#UMATILLA SCHOOLN/A 74 58 57 N1 30.12S  
#UMATILLA N/A 72 51 48 CALM 30.07S  

 
 
ORZ507-261810-  
NORTHERN FOOTHILLS OF THE BLUES  
 
CITY SKY/WX TMP DP RH WIND PRES REMARKS
 
PENDLETON AIRPT SUNNY 74 43 33 NE3 30.11F  
#ADAMS 3WNW N/A 73 49 43 CALM 30.07F  
#ATHENA N/A 73 49 43 CALM 30.09F  
#HELIX SCHOOL N/A 71 47 42 W2 30.07F  
#HELIX 3N N/A 72 46 39 SW2 30.09S  
#HOLDMAN 5SE N/A 72 46 39 W3 30.11S  
#HOLDMAN 6E N/A 74 47 38 CALM 29.89S  
#M-F FERNDALE N/A 69 56 63 CALM 30.09S  
#M-F GROVE ELEM N/A 75 48 38 N1 30.09S  
#M-FREEWATER 5SEN/A 76 51 42 CALM 30.10F  
#PDT AQUATIC CTRN/A 71 47 42 CALM 30.03S  
#PENDLETON DNTN N/A 71 45 39 CALM 30.07S  
#PENDLETON 5NE N/A 74 51 44 CALM 30.08F  
#PDT SUNRIDGE N/A 74 47 38 CALM 30.12F  
#PENDLETON 7NW N/A 76 52 43 CALM 30.03S  
#PILOT ROCK N/A 73 44 35 N2 30.13F  
#TUTUILLA N/A 74 51 44 CALM 30.02F  
#UMAPINE 2E N/A 77 53 43 N1 30.07S  
#WESTON SCHOOL N/A 72 44 37 CALM 30.10S  
 

 
 
ORZ508-261810-  
SOUTHERN FOOTHILLS OF THE BLUES  
 
CITY SKY/WX TMP DP RH WIND PRES REMARKS
 
#AJAX N/A N/A N/A N/A N2 30.16S  
#CONDON SCHOOL N/A 71 41 34 CALM 30.11S  
#CONDON 5W N/A 66 34 30 N5 30.14S  
#HEPPNER EOC N/A 73 44 35 N1 30.01F  
#HEPPNER 4NE N/A 71 43 36 NW2 30.05S  
#LEXINGTON 2SE N/A 76 47 36 NW1 30.08S  
#MIKKALO N/A 71 43 36 NW5 30.12S  
#OLEX 4N N/A 71 49 46 W6 30.09S  
#RUGGS 5NE N/A 76 45 33 N1 30.33S  
#RUGGS 2SW N/A 72 40 31 NE2 30.10S  
 

 
 
ORZ502-503-261810-  
BLUE MOUNTAINS  
 
CITY SKY/WX TMP DP RH WIND PRES REMARKS
 
MEACHAM SUNNY 72 39 30 VRB3 30.19F  
#BATTLE MTN DOT N/A 71 48 44 NW1 N/A  
#HARDMAN 10S N/A 69 35 28 E1 30.23S  
#HEPPNER 15SE N/A 71 42 35 N3 30.11F  
#LADD CYN SMT N/A 69 36 30 NW7 N/A  
#LADD CREEK ODOTN/A 64 45 50 NE7 N/A  
#LONG CREEK HS N/A 68 43 40 VRB1 30.13S  
#PIKES PEAK N/A 65 46 50 SW3 27.99S  
#TOLLGATE N/A 65 39 38 CALM 30.15R  
#TROY SCHOOL N/A 73 50 44 CALM 29.93F  
#UKIAH N/A 62 44 52 CALM 30.14F  
#WESTON 4E N/A 71 45 39 CALM 30.01S  

 
 
ORZ505-261810-  
JOHN DAY BASIN  
 
CITY SKY/WX TMP DP RH WIND PRES REMARKS
 
JOHN DAY SUNNY 72 39 30 CALM 30.18F  
#JOHN DAY KJDY N/A 77 38 24 CALM 30.12R  
#MONUMENT HS N/A 71 40 32 E1 29.92F  
#MT. VERNON 5SE N/A 71 42 35 NE1 30.15S  
#WINLOCK N/A 76 45 33 CALM 30.23F  

 
 
ORZ506-261810-  
OCHOCO AND JOHN DAY HIGHLANDS  
 
CITY SKY/WX TMP DP RH WIND PRES REMARKS
 
#BUCK CREEK DOT N/A 77 42 29 N1 N/A  
#HORSE RIDGE DO N/A 72 42 34 CALM N/A  
#KEYES SMT DOT N/A 71 40 32 E2 N/A  
#PINE MTN OBS N/A 63 37 38 E1 N/A  
#PRAIRIE CITY N/A 72 44 37 CALM 30.03F  
#SENECA 9NW N/A 64 42 45 CALM 30.04F  

 
 
ORZ049-261810-  
GRANDE RONDE VALLEY  
 
CITY SKY/WX TMP DP RH WIND PRES REMARKS
 
LA GRANDE SUNNY 66 39 37 N3 30.18F  
#COVE N/A 65 47 52 CALM 30.09S  
#COVE SCHOOL N/A 69 46 44 CALM 30.15S  
#COVE 6NW N/A 64 46 52 CALM 30.15F  
#ELGIN 3N N/A 71 44 38 CALM 29.89F  
#ELGIN 1E N/A 62 44 52 CALM N/A  
#IMBLER SCHOOL N/A 56 42 59 CALM 30.13F  
#ISLAND CITY 4N N/A 71 50 47 CALM 30.04F  
#LADD CYN DOT N/A 66 44 45 N2 N/A  
#UNION 1S N/A 66 45 47 CALM 30.01S  

 
 
ORZ050-261810-  
WALLOWA COUNTY  
 
CITY SKY/WX TMP DP RH WIND PRES REMARKS
 
#ENTERPRISE AP N/A 66 35 32 CALM 29.99S  
#ENTERPRISE HS N/A 69 44 40 W1 30.20S  
#IMNAHA SCHOOL N/A 73 38 28 CALM 30.04F  
#IMNAHA 10S N/A 76 45 33 NE5 30.14F  
#JOSEPH 3N N/A 66 44 45 CALM 30.21S  
#JOSEPH 3W N/A 71 38 30 N1 30.06S  
#LOSTINE N/A 69 45 42 N1 29.89F  
#MT HOWARD 8000 N/A 58 29 33 SE2 30.43R  
#PROMISE 1S N/A 67 48 50 CALM 30.17R  
#SHEEP RDG 7000 N/A 59 35 40 CALM 30.07F  
#WALLOWA SCHOOL N/A 64 45 50 CALM 31.00F  
 

 
 
CLICK HERE TO GO TO PREVIOUS BULLETINS.

The Nexlab OR Page
The Nexlab WA Page Main Text Page